GW5732 Weather Reports


time (UTC)temp
C
wind
direction
speed
KPH
gust
KPH
rain 1hr
cm
rain 24hr
cm
rain mn
cm
humidity
%
barometer
mb
20260906004109 32 321 0.0 0.0 0.00 0.00 0.00 62 1007.4
20260906003604 32 321 0.0 0.0 0.00 0.00 0.00 61 1007.2
20260906003101 32 321 0.0 0.0 0.00 0.00 0.00 60 1007.2
20260906002600 32 322 0.0 0.0 0.00 0.00 0.00 60 1007.1
20260906002055 32 322 0.0 0.0 0.00 0.00 0.00 59 1007.2
20260906001550 33 322 0.0 0.0 0.00 0.00 0.00 58 1007.3
20260906001045 33 323 0.0 0.0 0.00 0.00 0.00 58 1007.5
20260906000541 33 321 0.0 0.0 0.00 0.00 0.00 58 1007.6
20260906000036 33 308 0.0 0.0 0.00 0.00 0.00 57 1007.7
20260905235536 33 308 0.0 0.0 0.00 0.00 0.00 56 1007.4
20260905235031 34 308 0.0 1.6 0.00 0.00 0.00 56 1007.5
20260905234526 34 309 0.0 0.0 0.00 0.00 0.00 55 1007.3
20260905234026 35 308 0.0 0.0 0.00 0.00 0.00 55 1007.4
20260905233521 35 308 3.2 4.8 0.00 0.00 0.00 54 1007.4
20260905233021 35 316 0.0 0.0 0.00 0.00 0.00 53 1007.5
20260905232516 35 291 0.0 0.0 0.00 0.00 0.00 52 1007.5
20260905232012 35 317 1.6 3.2 0.00 0.00 0.00 51 1007.5
20260905231507 35 319 0.0 0.0 0.00 0.00 0.00 51 1007.3
20260905231004 35 316 6.4 9.7 0.00 0.00 0.00 50 1007.4
20260905230502 36 321 6.4 6.4 0.00 0.00 0.00 49 1007.3
20260905230000 36 301 3.2 3.2 0.00 0.00 0.00 49 1007.3
20260905225456 36 304 4.8 4.8 0.00 0.00 0.00 48 1007.4
20260905224951 36 337 8.0 9.7 0.00 0.00 0.00 47 1007.3
20260905224446 36 329 8.0 9.7 0.00 0.00 0.00 47 1007.2
20260905223945 36 327 6.4 11.3 0.00 0.00 0.00 47 1007.2
20260905223443 36 319 6.4 9.7 0.00 0.00 0.00 46 1007.0
20260905222938 36 337 8.0 11.3 0.00 0.00 0.00 46 1007.1
20260905222438 37 276 3.2 4.8 0.00 0.00 0.00 46 1007.2
20260905221933 37 326 6.4 6.4 0.00 0.00 0.00 45 1006.9
20260905221430 37 305 8.0 9.7 0.00 0.00 0.00 44 1006.9
20260905220926 37 346 8.0 9.7 0.00 0.00 0.00 44 1006.9
20260905220422 37 323 8.0 11.3 0.00 0.00 0.00 43 1007.0
20260905215920 37 314 3.2 9.7 0.00 0.00 0.00 43 1007.1
20260905215416 37 326 11.3 12.9 0.00 0.00 0.00 44 1006.9
20260905214913 37 310 8.0 11.3 0.00 0.00 0.00 43 1007.2
20260905214408 38 354 8.0 9.7 0.00 0.00 0.00 42 1007.1
20260905213908 38 302 8.0 12.9 0.00 0.00 0.00 41 1007.0
20260905213404 38 291 9.7 14.5 0.00 0.00 0.00 41 1007.1
20260905212859 38 274 4.8 6.4 0.00 0.00 0.00 43 1007.0
20260905212354 38 282 8.0 9.7 0.00 0.00 0.00 43 1007.1
20260905211853 38 351 14.5 20.9 0.00 0.00 0.00 42 1007.2
20260905211349 38 280 9.7 11.3 0.00 0.00 0.00 42 1007.2
20260905210845 38 256 3.2 4.8 0.00 0.00 0.00 41 1007.3
20260905210345 38 249 3.2 3.2 0.00 0.00 0.00 41 1007.2
20260905205844 38 273 8.0 9.7 0.00 0.00 0.00 43 1007.4
20260905205339 38 260 1.6 3.2 0.00 0.00 0.00 42 1007.4
20260905204838 38 231 6.4 6.4 0.00 0.00 0.00 41 1007.5
20260905204335 38 297 9.7 11.3 0.00 0.00 0.00 41 1007.6
20260905203833 38 342 4.8 6.4 0.00 0.00 0.00 41 1007.5
20260905203329 39 350 4.8 6.4 0.00 0.00 0.00 40 1007.8
20260905202825 38 311 4.8 6.4 0.00 0.00 0.00 40 1007.9
20260905202319 38 290 4.8 4.8 0.00 0.00 0.00 42 1007.7
20260905201815 38 298 6.4 11.3 0.00 0.00 0.00 42 1007.8
20260905201310 37 252 3.2 3.2 0.00 0.00 0.00 42 1007.8
20260905200804 38 259 4.8 4.8 0.00 0.00 0.00 43 1007.8
20260905200301 38 295 8.0 9.7 0.00 0.00 0.00 43 1007.9
20260905195758 38 347 8.0 11.3 0.00 0.00 0.00 43 1008.0
20260905195253 38 237 6.4 9.7 0.00 0.00 0.00 40 1008.1
20260905194749 38 276 3.2 3.2 0.00 0.00 0.00 44 1007.9
20260905194249 38 349 6.4 9.7 0.00 0.00 0.00 42 1008.2
20260905193748 38 264 1.6 3.2 0.00 0.00 0.00 43 1008.2
20260905193243 38 284 8.0 9.7 0.00 0.00 0.00 43 1008.3
20260905192738 38 275 3.2 4.8 0.00 0.00 0.00 43 1008.5
20260905192235 38 267 4.8 6.4 0.00 0.00 0.00 44 1008.4
20260905191734 38 274 4.8 4.8 0.00 0.00 0.00 44 1008.4
20260905191232 37 264 9.7 12.9 0.00 0.00 0.00 47 1008.6
20260905190731 37 267 3.2 4.8 0.00 0.00 0.00 46 1008.6
20260905190230 37 264 1.6 1.6 0.00 0.00 0.00 48 1009.0
20260905185729 37 345 9.7 11.3 0.00 0.00 0.00 44 1009.0
20260905185224 38 281 6.4 11.3 0.00 0.00 0.00 47 1008.8
20260905184719 37 269 6.4 9.7 0.00 0.00 0.00 46 1008.8
20260905184218 37 351 4.8 6.4 0.00 0.00 0.00 47 1008.8
20260905183717 36 325 1.6 1.6 0.00 0.00 0.00 49 1009.2
20260905183213 37 295 8.0 11.3 0.00 0.00 0.00 48 1009.2
20260905182713 37 328 6.4 6.4 0.00 0.00 0.00 46 1009.2
20260905182212 37 317 1.6 1.6 0.00 0.00 0.00 49 1009.0
20260905181708 37 334 4.8 9.7 0.00 0.00 0.00 48 1009.2
20260905181206 37 257 3.2 3.2 0.00 0.00 0.00 49 1009.2
20260905180701 36 296 4.8 9.7 0.00 0.00 0.00 50 1009.6
20260905180157 36 249 6.4 9.7 0.00 0.00 0.00 50 1009.4
20260905175655 37 270 9.7 12.9 0.00 0.00 0.00 49 1009.6
20260905175151 36 260 4.8 4.8 0.00 0.00 0.00 52 1009.3
20260905174647 36 243 4.8 4.8 0.00 0.00 0.00 52 1009.5
20260905174142 36 249 9.7 11.3 0.00 0.00 0.00 50 1009.4
20260905173638 36 241 4.8 6.4 0.00 0.00 0.00 52 1009.5
20260905173134 36 286 6.4 11.3 0.00 0.00 0.00 52 1009.5
20260905172632 36 249 0.0 1.6 0.00 0.00 0.00 51 1009.6
20260905172127 36 292 8.0 9.7 0.00 0.00 0.00 51 1009.8
20260905171624 36 307 6.4 9.7 0.00 0.00 0.00 51 1009.7
20260905171119 36 274 1.6 3.2 0.00 0.00 0.00 53 1009.7
20260905170616 36 316 6.4 9.7 0.00 0.00 0.00 52 1009.8
20260905170112 35 259 4.8 6.4 0.00 0.00 0.00 54 1010.0
20260905165611 35 248 3.2 4.8 0.00 0.00 0.00 57 1010.1
20260905165107 35 253 6.4 6.4 0.00 0.00 0.00 58 1009.8
20260905164602 35 248 3.2 4.8 0.00 0.00 0.00 55 1010.0
20260905164101 35 252 1.6 3.2 0.00 0.00 0.00 56 1010.2
20260905163558 35 243 4.8 6.4 0.00 0.00 0.00 57 1010.4
20260905163054 34 298 4.8 6.4 0.00 0.00 0.00 56 1010.4
20260905162550 35 245 3.2 4.8 0.00 0.00 0.00 57 1010.2
20260905162049 35 336 9.7 11.3 0.00 0.00 0.00 56 1010.6
20260905161549 34 242 0.0 0.0 0.00 0.00 0.00 57 1010.6
20260905161047 35 234 6.4 6.4 0.00 0.00 0.00 58 1010.4
20260905160545 35 298 6.4 9.7 0.00 0.00 0.00 56 1010.3
20260905160045 34 287 3.2 4.8 0.00 0.00 0.00 57 1010.4
20260905155540 33 285 1.6 3.2 0.00 0.00 0.00 59 1010.6
20260905155038 33 274 8.0 9.7 0.00 0.00 0.00 58 1010.6
20260905154534 33 330 4.8 6.4 0.00 0.00 0.00 57 1010.6
20260905154029 33 273 3.2 4.8 0.00 0.00 0.00 60 1010.6
20260905153525 33 269 1.6 3.2 0.00 0.00 0.00 58 1010.7
20260905153025 33 306 6.4 6.4 0.00 0.00 0.00 60 1010.8
20260905152525 33 267 1.6 1.6 0.00 0.00 0.00 62 1010.8
20260905152020 33 222 3.2 4.8 0.00 0.00 0.00 63 1010.8
20260905151515 33 301 8.0 11.3 0.00 0.00 0.00 62 1010.6
20260905151011 32 264 4.8 6.4 0.00 0.00 0.00 64 1010.6
20260905150505 32 250 3.2 4.8 0.00 0.00 0.00 66 1010.5
20260905150003 32 289 9.7 12.9 0.00 0.00 0.00 64 1010.5
20260905145457 32 261 1.6 3.2 0.00 0.00 0.00 66 1010.6
20260905144956 32 271 4.8 4.8 0.00 0.00 0.00 65 1010.5
20260905144452 32 236 3.2 4.8 0.00 0.00 0.00 65 1010.5
20260905143950 31 278 4.8 4.8 0.00 0.00 0.00 66 1010.7
20260905143449 31 203 3.2 4.8 0.00 0.00 0.00 68 1010.8
20260905142944 31 238 3.2 3.2 0.00 0.00 0.00 69 1010.7
20260905142443 31 253 3.2 3.2 0.00 0.00 0.00 71 1010.8
20260905141939 30 246 6.4 6.4 0.00 0.00 0.00 72 1010.6
20260905141433 30 244 3.2 3.2 0.00 0.00 0.00 72 1010.5
20260905140930 30 216 3.2 4.8 0.00 0.00 0.00 73 1010.8
20260905140425 30 213 3.2 3.2 0.00 0.00 0.00 74 1010.8
20260905135924 29 213 1.6 1.6 0.00 0.00 0.00 78 1010.6
20260905135420 29 212 4.8 6.4 0.00 0.00 0.00 77 1011.0
20260905134915 28 213 4.8 4.8 0.00 0.00 0.00 78 1011.0
20260905134414 28 212 4.8 4.8 0.00 0.00 0.00 78 1010.7
20260905133908 28 212 6.4 6.4 0.00 0.00 0.00 81 1010.8
20260905133403 28 211 4.8 4.8 0.00 0.00 0.00 80 1010.7
20260905132903 28 211 4.8 4.8 0.00 0.00 0.00 81 1010.7
20260905132358 28 211 1.6 3.2 0.00 0.00 0.00 81 1010.7
20260905131858 28 210 3.2 4.8 0.00 0.00 0.00 81 1011.0
20260905131354 28 221 3.2 4.8 0.00 0.00 0.00 81 1010.7
20260905130848 28 222 4.8 6.4 0.00 0.00 0.00 80 1010.6
20260905130347 27 261 3.2 3.2 0.00 0.00 0.00 81 1010.7
20260905125843 27 261 1.6 3.2 0.00 0.00 0.00 82 1010.6
20260905125337 27 261 1.6 3.2 0.00 0.00 0.00 83 1010.7
20260905124834 27 261 3.2 3.2 0.00 0.00 0.00 83 1010.5
20260905124330 26 261 1.6 1.6 0.00 0.00 0.00 83 1010.7
20260905123830 26 261 0.0 0.0 0.00 0.00 0.00 84 1010.6
20260905123327 27 261 0.0 1.6 0.00 0.00 0.00 84 1010.6
20260905122826 26 261 0.0 0.0 0.00 0.00 0.00 86 1010.3
20260905122326 25 261 0.0 0.0 0.00 0.00 0.00 87 1010.3
20260905121821 25 261 0.0 0.0 0.00 0.00 0.00 89 1010.3
20260905121318 25 261 0.0 0.0 0.00 0.00 0.00 90 1010.4
20260905120816 25 261 0.0 0.0 0.00 0.00 0.00 90 1010.3
20260905120312 25 261 0.0 0.0 0.00 0.00 0.00 90 1010.2
20260905115812 25 261 0.0 0.0 0.00 0.00 0.00 90 1010.3
20260905115311 25 261 0.0 0.0 0.00 0.00 0.00 90 1010.2
20260905114811 25 261 0.0 0.0 0.00 0.00 0.00 89 1010.3
20260905114310 25 261 0.0 0.0 0.00 0.00 0.00 89 1010.1
20260905113810 25 261 0.0 0.0 0.00 0.00 0.00 89 1010.2
20260905113306 25 261 0.0 0.0 0.00 0.00 0.00 88 1010.2
20260905112801 25 261 1.6 3.2 0.00 0.00 0.00 88 1009.9
20260905112255 25 261 0.0 0.0 0.00 0.00 0.00 87 1010.0
20260905111751 25 262 0.0 1.6 0.00 0.00 0.00 88 1010.0
20260905111251 25 261 1.6 1.6 0.00 0.00 0.00 88 1010.1
20260905110750 25 261 1.6 1.6 0.00 0.00 0.00 89 1010.3
20260905110244 25 261 1.6 1.6 0.00 0.00 0.00 89 1010.3
20260905105740 24 262 1.6 1.6 0.00 0.00 0.00 90 1010.0
20260905105239 24 261 0.0 0.0 0.00 0.00 0.00 91 1009.8
20260905104733 24 261 0.0 0.0 0.00 0.00 0.00 91 1009.9
20260905104230 24 261 0.0 0.0 0.00 0.00 0.00 91 1009.9
20260905103724 24 261 0.0 0.0 0.00 0.00 0.00 91 1009.9
20260905103220 24 261 0.0 0.0 0.00 0.00 0.00 90 1010.0
20260905102716 24 261 0.0 0.0 0.00 0.00 0.00 90 1010.1
20260905102212 24 261 0.0 0.0 0.00 0.00 0.00 90 1010.0
20260905101711 24 261 0.0 1.6 0.00 0.00 0.00 90 1009.9
20260905101209 24 261 0.0 0.0 0.00 0.00 0.00 90 1009.8
20260905100706 24 261 1.6 1.6 0.00 0.00 0.00 90 1009.8
20260905100200 24 261 1.6 1.6 0.00 0.00 0.00 90 1009.9
20260905095700 24 261 0.0 0.0 0.00 0.00 0.00 90 1009.8
20260905095154 24 261 0.0 0.0 0.00 0.00 0.00 90 1009.7
20260905094650 24 261 0.0 0.0 0.00 0.00 0.00 90 1009.8
20260905094149 24 261 0.0 0.0 0.00 0.00 0.00 90 1009.8
20260905093644 24 261 0.0 0.0 0.00 0.00 0.00 90 1009.8
20260905093140 24 261 0.0 0.0 0.00 0.00 0.00 90 1009.8
20260905092640 24 261 0.0 0.0 0.00 0.00 0.00 90 1009.8
20260905092136 24 262 0.0 0.0 0.00 0.00 0.00 90 1009.5
20260905091635 24 262 0.0 0.0 0.00 0.00 0.00 90 1009.7
20260905091135 24 262 0.0 0.0 0.00 0.00 0.00 90 1009.7
20260905090630 24 261 0.0 0.0 0.00 0.00 0.00 90 1009.7
20260905090126 24 262 0.0 0.0 0.00 0.00 0.00 90 1009.5
20260905085624 24 262 0.0 0.0 0.00 0.00 0.00 89 1009.7
20260905085120 25 262 0.0 0.0 0.00 0.00 0.00 89 1009.8
20260905084619 25 261 0.0 0.0 0.00 0.00 0.00 89 1009.8
20260905084115 24 261 0.0 0.0 0.00 0.00 0.00 89 1009.9
20260905083615 24 262 0.0 0.0 0.00 0.00 0.00 89 1009.8
20260905083111 24 262 0.0 0.0 0.00 0.00 0.00 89 1009.7
20260905082606 24 262 0.0 0.0 0.00 0.00 0.00 90 1009.9
20260905082102 24 261 0.0 0.0 0.00 0.00 0.00 89 1009.8
20260905081601 24 261 0.0 0.0 0.00 0.00 0.00 89 1009.8
20260905081057 25 261 0.0 0.0 0.00 0.00 0.00 89 1009.9
20260905080556 25 262 0.0 0.0 0.00 0.00 0.00 89 1009.9
20260905080052 25 262 0.0 0.0 0.00 0.00 0.00 89 1010.0
20260905075551 25 262 0.0 0.0 0.00 0.00 0.00 88 1009.8
20260905075050 25 261 0.0 0.0 0.00 0.00 0.00 88 1009.8
20260905074550 25 261 0.0 0.0 0.00 0.00 0.00 88 1010.0
20260905074046 25 261 0.0 0.0 0.00 0.00 0.00 88 1009.9
20260905073541 25 261 0.0 1.6 0.00 0.00 0.00 88 1009.7
20260905073037 25 262 0.0 0.0 0.00 0.00 0.00 87 1010.0
20260905072535 25 262 0.0 0.0 0.00 0.00 0.00 87 1009.9
20260905072031 25 262 0.0 0.0 0.00 0.00 0.00 88 1009.9
20260905071528 25 262 0.0 0.0 0.00 0.00 0.00 88 1009.9
20260905071028 25 262 0.0 0.0 0.00 0.00 0.00 89 1010.0
20260905070523 25 261 0.0 0.0 0.00 0.00 0.00 88 1010.0
20260905070019 25 261 0.0 0.0 0.00 0.00 0.00 89 1010.1
20260905065517 25 262 0.0 0.0 0.00 0.00 0.00 89 1009.8
20260905065012 25 262 0.0 0.0 0.00 0.00 0.00 89 1010.1
20260905064507 25 262 0.0 0.0 0.00 0.00 0.00 88 1010.2
20260905064003 25 261 0.0 0.0 0.00 0.00 0.00 88 1010.2
20260905063502 25 262 0.0 0.0 0.00 0.00 0.00 88 1010.1
20260905062959 25 262 0.0 0.0 0.00 0.00 0.00 87 1010.1
20260905062458 25 262 0.0 0.0 0.00 0.00 0.00 87 1010.3
20260905061953 25 262 0.0 0.0 0.00 0.00 0.00 86 1010.2
20260905061448 25 262 0.0 0.0 0.00 0.00 0.00 86 1010.2
20260905060947 25 261 0.0 0.0 0.00 0.00 0.00 86 1010.3
20260905060443 26 262 0.0 1.6 0.00 0.00 0.00 85 1010.2
20260905055943 26 262 1.6 3.2 0.00 0.00 0.00 85 1010.2
20260905055443 26 261 0.0 0.0 0.00 0.00 0.00 84 1010.0
20260905054943 26 261 0.0 0.0 0.00 0.00 0.00 84 1010.3
20260905054438 26 261 0.0 0.0 0.00 0.00 0.00 84 1010.4
20260905053938 26 261 0.0 0.0 0.00 0.00 0.00 84 1010.5
20260905053434 26 261 0.0 0.0 0.00 0.00 0.00 83 1010.4
20260905052929 26 261 0.0 0.0 0.00 0.00 0.00 83 1010.4
20260905052428 26 261 0.0 0.0 0.00 0.00 0.00 83 1010.2
20260905051928 26 261 0.0 0.0 0.00 0.00 0.00 82 1010.7
20260905051424 27 261 0.0 0.0 0.00 0.00 0.00 80 1010.1
20260905050921 27 261 0.0 0.0 0.00 0.00 0.00 80 1010.2
20260905050417 27 261 1.6 1.6 0.00 0.00 0.00 78 1010.1
20260905045912 27 261 1.6 1.6 0.00 0.00 0.00 78 1010.1
20260905045408 27 261 1.6 1.6 0.00 0.00 0.00 79 1010.2
20260905044903 27 261 0.0 0.0 0.00 0.00 0.00 81 1010.2
20260905044358 27 261 0.0 0.0 0.00 0.00 0.00 81 1010.0
20260905043856 27 261 0.0 0.0 0.00 0.00 0.00 79 1010.2
20260905043351 27 261 0.0 0.0 0.00 0.00 0.00 80 1010.2
20260905042846 26 261 0.0 1.6 0.00 0.00 0.00 81 1010.1
20260905042346 27 261 0.0 0.0 0.00 0.00 0.00 82 1010.2
20260905041841 27 261 0.0 0.0 0.00 0.00 0.00 81 1010.3
20260905041338 27 261 0.0 0.0 0.00 0.00 0.00 79 1010.2
20260905040837 27 261 0.0 1.6 0.00 0.00 0.00 79 1010.1
20260905040337 28 261 1.6 1.6 0.00 0.00 0.00 78 1010.1
20260905035836 27 261 1.6 1.6 0.00 0.00 0.00 78 1010.0
20260905035332 27 261 0.0 1.6 0.00 0.00 0.00 80 1010.3
20260905034828 27 261 0.0 0.0 0.00 0.00 0.00 82 1010.0
20260905034324 27 261 0.0 0.0 0.00 0.00 0.00 82 1010.2
20260905033822 27 261 0.0 0.0 0.00 0.00 0.00 80 1010.4
20260905033317 27 261 0.0 0.0 0.00 0.00 0.00 80 1010.5
20260905032817 27 261 0.0 0.0 0.00 0.00 0.00 81 1010.5
20260905032313 27 261 0.0 0.0 0.00 0.00 0.00 81 1010.4
20260905031808 27 261 0.0 0.0 0.00 0.00 0.00 80 1010.6
20260905031304 27 261 0.0 0.0 0.00 0.00 0.00 79 1010.4
20260905030758 27 261 0.0 0.0 0.00 0.00 0.00 79 1010.4
20260905030254 28 261 0.0 0.0 0.00 0.00 0.00 79 1010.4
20260905025748 27 261 0.0 0.0 0.00 0.00 0.00 78 1010.5
20260905025243 27 261 0.0 0.0 0.00 0.00 0.00 78 1010.5
20260905024739 28 261 0.0 0.0 0.00 0.00 0.00 77 1010.6
20260905024235 28 261 0.0 0.0 0.00 0.00 0.00 78 1010.3
20260905023735 27 261 0.0 0.0 0.00 0.00 0.00 79 1010.2
20260905023229 28 261 0.0 0.0 0.00 0.00 0.00 80 1010.4
20260905022724 28 261 0.0 0.0 0.00 0.00 0.00 79 1010.2
20260905022220 28 261 0.0 0.0 0.00 0.00 0.00 79 1010.1
20260905021718 28 261 0.0 0.0 0.00 0.00 0.00 80 1010.2
20260905021214 28 261 0.0 0.0 0.00 0.00 0.00 79 1010.2
20260905020709 28 261 0.0 0.0 0.00 0.00 0.00 80 1010.1
20260905020204 28 261 0.0 0.0 0.00 0.00 0.00 78 1010.2
20260905015703 28 261 0.0 0.0 0.00 0.00 0.00 78 1010.1
20260905015202 28 261 0.0 0.0 0.00 0.00 0.00 78 1010.1
20260905014700 28 261 0.0 0.0 0.00 0.00 0.00 77 1009.7
20260905014156 29 261 0.0 0.0 0.00 0.00 0.00 76 1009.7
20260905013653 29 261 0.0 0.0 0.00 0.00 0.00 75 1009.8
20260905013148 29 262 0.0 0.0 0.00 0.00 0.00 75 1009.3
20260905012643 29 261 0.0 0.0 0.00 0.00 0.00 74 1009.7
20260905012140 30 262 0.0 0.0 0.00 0.00 0.00 73 1009.4
20260905011636 30 262 0.0 0.0 0.00 0.00 0.00 74 1009.6
20260905011131 30 262 0.0 0.0 0.00 0.00 0.00 73 1009.4
20260905010626 30 262 0.0 0.0 0.00 0.00 0.00 73 1009.3
20260905010122 30 262 0.0 0.0 0.00 0.00 0.00 72 1009.2
20260905005618 30 262 0.0 0.0 0.00 0.00 0.00 71 1009.3
20260905005113 31 262 0.0 0.0 0.00 0.00 0.00 70 1009.2
20260905004608 31 261 0.0 0.0 0.00 0.00 0.00 68 1009.1